Terminal Aerodrome Forecast
Issued by NWS Lake Charles, LA

Home | Current Version | Previous Version | Text Only | Print | Product List | Glossary On
Versions: 1 2 3 4 5 6 7 8 9 10 11 12 13 14 15
000
FTUS44 KLCH 041720
TAFBPT
TAF
KBPT 041720Z 0418/0518 21008KT P6SM VCTS SCT035CB OVC250
     FM050200 VRB03KT P6SM OVC250
     FM051000 VRB03KT P6SM OVC020
     FM051400 19006KT P6SM SCT050=

USA.gov is the U.S. government's official web portal to all federal, state and local government web resources and services.